Wind_Speed
25 26 26 27 27 27 25 24 24 25 25 24 24 24 24 23 23 23 22 21 21 21 20 20 20 19 19 19 19 18 17 17 16 16 15 15 15 14 14 13 13 13 13 13 14 14 15 15 15
25 26 27 28 28 27 25 24 25 25 25 25 26 26 25 25 24 24 24 23 23 22 22 22 22 21 21 21 20 20 20 19 18 18 18 17 16 16 15 15 15 15 15 15 15 16 16 17 17
26 26 28 28 29 27 25 25 26 26 26 27 27 27 27 26 26 26 25 25 25 24 23 23 23 23 22 22 22 22 21 21 20 20 20 19 18 18 18 18 17 17 17 17 17 18 18 18 19
26 27 28 29 29 27 27 27 27 28 28 28 28 27 27 28 28 27 27 26 26 25 25 24 24 24 24 23 23 23 23 23 22 22 21 21 20 20 20 20 20 19 19 19 19 19 19 20 20
26 27 28 28 28 28 28 29 29 30 30 29 29 28 28 28 29 28 28 28 27 27 26 26 26 25 25 25 24 24 24 24 23 23 23 23 23 23 23 22 22 22 22 22 22 22 21 21 22
26 27 28 27 27 28 29 30 31 32 32 31 31 30 30 30 30 29 29 29 29 28 28 27 27 27 26 26 26 25 25 25 25 25 25 25 25 25 25 25 25 24 24 24 24 24 24 24 24
26 27 28 28 28 29 30 31 32 33 33 32 32 31 30 30 31 31 30 30 30 30 29 29 28 28 28 27 27 27 27 27 27 27 27 27 27 27 27 27 27 26 27 27 27 27 27 26 27
27 28 28 28 28 29 31 32 32 33 33 33 33 32 31 31 31 32 32 32 32 32 31 31 31 30 30 30 30 29 29 29 29 29 29 29 29 29 29 29 29 29 29 29 29 29 29 29 29
27 28 27 27 28 28 30 32 32 33 33 34 34 33 33 32 32 33 33 33 33 33 33 33 32 32 32 32 32 31 31 31 31 31 31 31 31 31 31 31 31 31 31 31 31 31 31 31 31
27 27 26 27 27 27 29 31 32 33 33 34 35 34 34 34 34 34 34 34 35 35 35 35 34 34 34 34 34 33 33 33 33 33 33 33 33 33 33 33 33 33 33 33 33 33 33 33 33
26 26 26 27 27 27 29 31 32 33 33 35 35 35 35 36 35 35 35 35 36 36 36 36 36 36 36 36 36 36 36 35 35 35 35 35 35 35 36 35 35 35 35 35 35 35 35 35 35
26 25 26 27 28 28 29 31 32 32 34 35 36 36 37 36 36 36 36 36 36 37 38 38 38 37 37 37 38 38 37 37 37 37 37 37 37 37 37 37 37 37 37 37 37 37 37 37 37
27 27 27 27 28 29 30 31 32 33 34 35 36 36 37 37 37 37 37 37 37 37 38 39 39 39 38 38 38 39 39 39 39 39 39 38 39 39 38 38 39 39 39 39 39 38 38 38 38
27 27 27 28 28 29 30 30 33 33 34 35 35 36 36 36 37 37 37 37 37 37 38 38 39 39 39 39 40 40 40 40 40 39 39 39 39 40 40 40 40 40 40 40 40 41 41 41 41
26 27 27 27 28 28 30 30 32 33 34 34 35 35 36 36 37 37 38 38 38 38 38 38 38 38 39 39 39 40 41 41 41 40 40 40 41 41 41 41 42 42 42 42 42 43 43 43 43
26 27 27 27 28 29 30 29 30 32 33 34 35 35 35 36 37 38 38 38 38 38 39 39 38 39 39 39 39 40 40 40 40 41 41 42 42 42 42 42 43 43 44 44 44 44 44 44 44
26 27 27 28 28 29 29 28 28 30 32 34 35 36 37 36 36 37 38 39 39 39 39 39 39 39 39 40 40 40 40 40 40 41 42 42 43 43 43 43 43 44 44 44 45 45 45 44 44
26 27 28 28 29 29 29 29 28 30 32 33 35 36 37 37 37 38 39 40 40 40 40 40 40 39 39 40 40 41 41 41 41 42 43 43 43 43 43 43 43 44 44 44 44 45 44 44 44
27 27 28 27 28 30 30 30 29 30 31 32 34 35 36 36 36 37 38 40 40 41 41 41 40 40 40 40 40 41 42 42 43 43 43 44 44 43 43 42 43 43 44 44 44 44 45 45 45
27 27 27 28 29 30 30 31 30 31 31 31 32 33 34 35 35 36 36 38 39 40 41 41 41 41 41 41 41 42 42 42 43 43 43 43 44 44 43 43 43 43 44 44 44 45 45 45 46
27 27 27 27 28 30 31 30 29 29 30 30 30 31 33 34 34 35 35 36 38 39 39 40 41 41 41 41 41 42 42 42 42 42 43 43 43 44 43 43 44 44 44 44 44 45 45 45 45
26 26 27 27 28 29 30 31 28 28 28 28 29 29 30 32 33 34 35 36 37 38 39 39 40 41 41 42 41 42 42 42 42 42 42 43 43 44 43 43 44 44 44 44 44 44 44 44 44
26 26 27 28 29 29 29 30 27 26 25 25 26 27 28 30 32 33 34 35 36 36 37 38 39 39 40 41 40 40 40 40 40 41 41 42 42 42 42 43 42 43 43 44 44 45 45 45 45
27 27 28 28 29 30 28 29 27 24 24 24 25 26 27 28 29 31 33 34 35 36 36 37 38 38 39 39 39 39 39 39 39 40 40 41 41 41 41 42 43 43 44 44 44 45 45 44 44
27 27 29 30 30 30 28 28 26 23 23 24 24 25 26 27 28 30 31 33 34 36 36 37 37 37 37 37 37 37 38 38 38 38 39 39 39 40 40 41 42 42 43 43 43 42 42 43 42
27 28 28 30 31 30 29 28 25 24 24 24 24 24 25 26 28 30 32 32 33 35 35 35 35 35 36 36 35 36 36 37 37 37 37 38 39 40 41 40 41 41 41 40 41 41 41 40 40
28 28 28 30 31 31 30 29 26 25 24 24 24 24 25 25 26 28 30 30 31 32 33 34 34 34 34 35 35 35 36 36 37 37 38 38 38 39 39 39 39 39 40 40 39 39 39 38 38
29 28 28 29 31 32 31 29 27 25 25 25 24 24 25 26 26 26 27 28 29 30 31 32 32 33 33 34 35 35 35 35 36 37 38 37 37 37 37 38 38 38 38 38 38 37 37 37 38
29 29 29 30 31 32 32 29 27 26 26 25 25 25 25 26 26 26 27 28 29 29 29 30 31 32 32 33 34 35 35 34 35 37 36 36 36 36 36 36 37 37 37 37 37 36 36 36 37
30 30 30 30 31 31 32 31 28 27 26 26 27 27 26 26 26 26 26 27 27 28 28 29 30 30 31 32 33 33 34 34 34 35 36 36 36 35 36 35 36 36 36 36 36 35 35 35 36
Wind_Direction
250 250 249 247 246 247 247 248 246 245 247 247 248 249 250 251 251 253 252 251 251 252 253 254 255 254 255 256 257 258 258 258 257 259 260 262 262 261 262 265 267 269 270 271 272 274 275 277 275
250 251 249 248 248 248 248 249 248 246 246 247 248 249 250 250 251 252 252 251 251 252 253 254 255 256 256 257 258 258 259 259 259 259 260 261 261 260 262 264 267 269 272 273 274 276 277 278 278
254 252 250 249 249 250 250 249 248 246 247 248 249 250 251 252 252 253 253 252 252 252 252 254 255 256 256 257 258 258 259 259 259 259 259 260 261 260 262 264 267 269 272 274 276 277 277 278 279
257 254 252 251 251 251 251 250 248 247 247 248 249 249 250 251 253 253 253 253 253 253 253 253 255 255 256 256 257 258 258 259 259 259 259 260 261 261 262 264 267 269 272 273 275 277 277 277 278
256 254 253 253 253 252 251 250 249 248 248 249 250 251 250 251 252 253 253 253 253 253 254 254 254 255 255 256 257 257 258 258 258 258 258 258 260 261 263 264 266 268 270 272 274 275 275 276 277
256 255 255 256 256 255 253 251 250 248 248 250 251 251 251 251 252 253 253 253 254 254 254 254 255 256 255 255 256 257 258 258 258 258 258 259 260 261 263 265 266 267 269 271 272 273 274 275 276
258 258 258 258 258 256 254 252 251 250 249 250 251 251 252 252 252 253 254 254 255 255 256 256 256 256 255 255 256 256 258 258 258 259 259 259 261 262 263 265 266 268 269 270 271 272 273 274 275
259 259 259 259 258 256 254 252 250 250 249 249 251 252 253 253 253 254 254 255 256 256 257 258 257 256 256 256 256 256 257 258 258 259 260 260 261 263 264 265 266 268 269 270 271 272 272 273 275
260 260 261 259 258 257 255 252 251 250 251 250 252 253 254 254 254 255 255 255 256 257 257 258 259 257 257 257 257 257 257 258 259 259 260 261 262 263 264 265 266 267 268 270 271 272 272 273 273
261 262 262 260 259 258 256 254 252 251 252 252 252 253 254 254 255 255 255 255 256 257 258 258 259 258 258 258 258 257 257 258 259 260 261 262 263 264 265 266 266 267 268 269 270 271 271 271 272
263 263 262 261 260 259 258 256 254 253 253 253 254 255 256 256 255 255 256 256 256 257 257 258 259 259 259 258 258 257 257 258 260 261 262 263 264 265 265 266 267 268 269 269 270 270 270 270 271
264 263 263 262 261 260 259 257 256 257 256 255 255 256 257 258 257 256 256 257 257 257 257 258 258 259 259 259 259 258 258 259 260 261 263 264 265 266 266 266 266 267 268 269 270 270 270 270 270
264 263 263 264 263 262 261 259 258 258 258 257 257 257 257 257 258 257 256 257 258 257 256 257 258 258 259 259 258 259 259 259 261 262 263 263 265 265 265 265 266 267 268 268 269 269 269 270 270
265 264 264 265 265 264 263 261 259 260 259 259 258 258 258 257 258 258 258 258 257 257 256 257 258 258 259 259 259 259 260 260 261 262 263 263 264 264 264 265 266 266 267 267 268 268 269 270 271
266 265 265 266 267 266 266 264 262 261 260 259 260 260 260 259 259 259 258 258 258 257 257 258 258 259 260 260 260 260 260 260 261 262 262 263 264 265 265 265 266 266 266 267 268 269 269 270 271
266 266 266 267 267 267 268 267 266 264 262 261 261 261 261 262 261 260 259 258 258 258 258 258 259 259 260 261 261 261 260 260 261 262 262 263 264 265 265 265 266 266 267 268 268 269 270 270 271
266 267 267 268 268 269 269 269 269 268 266 264 263 263 262 262 262 261 259 258 258 258 259 259 259 260 260 261 261 261 261 262 262 263 263 263 264 265 265 265 266 267 268 269 269 269 270 271 271
269 269 271 270 269 269 269 270 271 270 270 267 265 265 263 263 262 261 260 259 259 259 259 260 260 260 260 261 261 261 261 263 264 264 264 264 265 265 266 267 267 267 268 268 269 270 270 270 271
271 272 272 271 271 270 270 271 273 274 274 271 269 266 264 263 261 261 262 261 260 260 260 260 260 260 261 261 261 261 262 263 264 265 265 265 266 266 267 267 267 268 268 269 269 270 270 270 270
271 272 271 270 272 272 271 272 274 276 276 275 272 268 265 264 262 262 263 261 260 260 259 259 260 261 262 262 262 262 263 264 265 265 266 266 266 267 267 268 268 268 268 269 269 270 270 270 271
270 271 272 272 273 275 275 274 275 277 278 277 274 271 267 264 263 263 263 263 262 262 261 260 260 262 262 263 263 263 263 264 265 265 266 266 266 267 268 268 268 268 268 268 269 270 271 270 271
270 271 272 273 274 276 278 279 277 279 280 280 279 276 272 267 265 264 263 263 263 263 263 262 261 262 262 263 264 263 263 264 264 265 266 267 266 266 267 268 269 269 269 269 269 270 270 269 269
270 272 273 274 275 277 279 281 281 281 282 282 281 279 276 271 267 266 265 264 264 264 264 264 263 263 263 264 264 264 264 265 265 265 266 266 267 267 267 267 268 269 269 270 270 270 270 270 270
269 272 274 275 276 278 280 283 284 284 284 282 280 279 276 274 271 269 267 267 267 266 266 265 264 264 264 265 265 265 265 265 265 265 265 266 266 267 267 268 268 269 270 272 272 272 270 269 269
269 272 275 276 276 278 281 281 284 285 285 284 283 281 278 276 274 273 272 270 269 269 267 266 265 264 264 264 265 265 265 265 264 264 265 265 266 266 267 268 269 271 271 271 273 272 271 269 269
268 271 274 277 278 278 278 280 283 285 285 286 285 284 282 279 279 277 275 273 271 270 269 267 266 264 264 264 265 265 265 265 265 265 266 266 267 267 267 267 269 271 271 272 272 272 271 270 270
269 270 272 274 277 278 277 279 281 283 284 284 284 285 285 283 284 282 279 275 273 271 269 268 267 266 265 264 264 265 265 265 265 266 267 266 266 268 268 269 270 271 272 272 272 272 271 271 270
269 270 271 272 276 278 279 281 283 283 284 284 286 287 288 289 288 286 281 278 276 274 272 270 269 267 266 266 266 266 266 265 265 267 267 267 267 268 268 270 271 273 273 272 272 271 271 271 271
267 268 269 270 273 277 280 281 285 286 286 285 286 288 289 291 290 288 284 282 279 276 274 273 271 269 269 268 268 268 267 267 267 266 267 267 267 268 269 271 272 272 272 271 271 271 270 271 272
268 268 269 270 272 274 277 280 283 284 284 284 285 287 289 290 290 289 286 283 280 277 275 275 275 273 271 269 268 268 267 267 269 268 268 267 267 267 269 271 272 271 271 271 271 270 270 271 272
Height
5793 5795 5796 5798 5799 5801 5803 5805 5806 5808 5809 5811 5812 5813 5815 5817 5819 5822 5822 5822 5822 5823 5824 5825 5826 5827 5827 5828 5829 5830 5831 5832 5832 5833 5834 5835 5835 5836 5837 5837 5838 5838 5839 5839 5840 5840 5841 5841 5841
5789 5790 5792 5793 5794 5796 5799 5801 5802 5803 5805 5806 5808 5809 5810 5812 5813 5815 5816 5817 5818 5820 5821 5822 5822 5823 5824 5825 5826 5826 5827 5828 5829 5830 5831 5831 5832 5833 5834 5834 5835 5835 5836 5836 5837 5837 5837 5838 5838
5784 5785 5787 5788 5790 5792 5795 5796 5797 5798 5800 5801 5803 5804 5806 5808 5809 5810 5811 5813 5814 5815 5816 5817 5818 5819 5820 5821 5822 5823 5823 5824 5825 5826 5827 5828 5829 5829 5830 5831 5831 5832 5832 5833 5833 5833 5834 5834 5834
5780 5781 5782 5784 5785 5788 5790 5791 5792 5793 5795 5796 5798 5800 5801 5803 5804 5805 5806 5808 5809 5810 5812 5813 5814 5815 5816 5817 5817 5818 5819 5820 5821 5822 5823 5823 5824 5825 5826 5827 5827 5828 5828 5829 5829 5829 5830 5830 5830
5774 5776 5777 5779 5780 5783 5784 5785 5786 5788 5790 5791 5793 5795 5796 5797 5798 5800 5801 5802 5804 5805 5807 5808 5809 5810 5811 5812 5813 5814 5814 5815 5816 5817 5818 5819 5820 5821 5822 5823 5823 5824 5824 5824 5825 5825 5825 5826 5826
5770 5771 5772 5774 5776 5777 5778 5779 5780 5782 5784 5786 5787 5789 5790 5792 5793 5795 5796 5797 5798 5800 5801 5802 5803 5804 5805 5807 5807 5808 5809 5810 5811 5812 5813 5814 5815 5816 5817 5818 5818 5819 5819 5820 5820 5820 5820 5821 5821
5765 5766 5767 5769 5770 5771 5772 5773 5774 5776 5778 5780 5781 5783 5785 5786 5787 5789 5790 5791 5792 5794 5795 5796 5798 5799 5800 5801 5802 5803 5804 5805 5805 5807 5808 5809 5810 5811 5811 5812 5813 5814 5814 5814 5815 5815 5815 5815 5815
5759 5761 5761 5763 5764 5765 5766 5766 5768 5769 5771 5773 5775 5777 5779 5780 5781 5782 5784 5785 5786 5787 5789 5790 5791 5792 5793 5795 5796 5797 5798 5799 5800 5801 5802 5803 5804 5805 5805 5806 5807 5807 5808 5808 5809 5809 5809 5809 5809
5753 5755 5756 5757 5758 5759 5759 5760 5761 5763 5765 5767 5768 5770 5772 5773 5774 5776 5777 5778 5779 5781 5782 5783 5784 5786 5787 5788 5789 5790 5791 5792 5793 5794 5795 5796 5797 5798 5799 5799 5800 5801 5801 5802 5802 5802 5802 5803 5803
5748 5749 5751 5751 5751 5752 5752 5753 5755 5757 5758 5760 5761 5763 5765 5766 5767 5769 5770 5771 5772 5773 5774 5775 5777 5778 5779 5780 5782 5783 5784 5785 5786 5787 5788 5789 5790 5791 5792 5792 5793 5794 5794 5794 5795 5795 5795 5796 5796
5742 5743 5744 5744 5744 5745 5746 5747 5748 5750 5751 5753 5754 5756 5757 5759 5760 5761 5762 5763 5764 5765 5767 5768 5769 5770 5771 5772 5774 5775 5776 5777 5778 5779 5780 5781 5782 5783 5784 5785 5785 5786 5786 5787 5787 5788 5788 5788 5788
5736 5737 5737 5738 5738 5738 5739 5740 5741 5743 5745 5745 5746 5748 5749 5751 5752 5753 5754 5755 5756 5757 5758 5759 5760 5761 5763 5764 5765 5767 5768 5769 5770 5771 5772 5773 5774 5775 5776 5777 5777 5778 5778 5779 5779 5779 5780 5780 5780
5730 5731 5731 5731 5731 5731 5732 5733 5734 5736 5736 5737 5738 5739 5741 5742 5743 5744 5746 5747 5748 5749 5750 5751 5752 5753 5754 5755 5757 5758 5759 5760 5762 5763 5764 5765 5766 5766 5767 5768 5768 5769 5770 5770 5770 5771 5771 5771 5771
5724 5724 5724 5724 5724 5724 5725 5726 5727 5728 5728 5729 5730 5731 5732 5734 5735 5736 5737 5738 5739 5740 5741 5742 5743 5744 5745 5747 5748 5749 5750 5751 5752 5754 5755 5755 5756 5757 5758 5759 5759 5760 5760 5761 5761 5761 5762 5762 5762
5718 5718 5718 5718 5717 5718 5718 5720 5720 5720 5720 5721 5722 5723 5724 5725 5726 5727 5728 5729 5730 5731 5732 5733 5734 5735 5736 5738 5739 5740 5741 5742 5743 5744 5745 5746 5747 5748 5748 5749 5750 5750 5750 5751 5751 5751 5751 5752 5752
5711 5712 5712 5712 5711 5711 5712 5713 5713 5712 5712 5713 5713 5714 5715 5716 5717 5718 5718 5720 5721 5722 5723 5724 5725 5727 5728 5728 5730 5731 5732 5733 5734 5735 5736 5737 5737 5738 5739 5739 5739 5740 5740 5740 5741 5741 5741 5741 5741
5705 5705 5705 5706 5705 5704 5704 5705 5706 5704 5704 5705 5705 5705 5706 5707 5708 5708 5709 5710 5711 5712 5713 5715 5716 5717 5718 5719 5720 5721 5722 5723 5724 5725 5726 5727 5727 5728 5728 5729 5729 5729 5729 5729 5730 5730 5730 5730 5730
5699 5699 5699 5699 5698 5698 5697 5698 5698 5696 5696 5696 5696 5696 5697 5698 5699 5699 5700 5701 5702 5703 5704 5705 5706 5707 5708 5709 5711 5712 5713 5714 5715 5715 5716 5717 5717 5717 5718 5718 5718 5718 5718 5718 5718 5719 5718 5718 5718
5692 5692 5692 5692 5691 5690 5690 5690 5690 5689 5688 5688 5687 5687 5688 5689 5689 5690 5691 5692 5692 5693 5695 5696 5697 5698 5699 5700 5701 5702 5703 5704 5705 5705 5706 5706 5706 5707 5707 5707 5707 5707 5707 5707 5707 5707 5707 5707 5707
5685 5685 5685 5684 5683 5682 5682 5682 5683 5681 5680 5679 5679 5678 5679 5680 5680 5681 5681 5682 5683 5684 5685 5686 5687 5688 5689 5690 5691 5692 5693 5694 5695 5695 5695 5696 5696 5696 5696 5696 5696 5696 5696 5696 5696 5696 5696 5696 5695
5678 5678 5678 5677 5676 5675 5674 5675 5676 5674 5672 5671 5670 5670 5670 5671 5671 5672 5672 5673 5673 5674 5675 5676 5677 5678 5679 5679 5680 5682 5683 5684 5684 5685 5685 5685 5685 5685 5685 5685 5685 5685 5685 5685 5685 5684 5684 5684 5684
5672 5672 5671 5670 5669 5668 5667 5665 5669 5667 5665 5663 5662 5662 5661 5662 5662 5663 5663 5664 5664 5665 5665 5665 5666 5667 5668 5669 5670 5671 5672 5673 5674 5674 5674 5674 5674 5674 5675 5675 5674 5674 5674 5674 5673 5672 5672 5672 5672
5665 5664 5664 5663 5661 5661 5660 5658 5660 5659 5658 5657 5656 5654 5653 5653 5653 5654 5654 5655 5655 5655 5655 5655 5656 5657 5658 5658 5659 5660 5661 5662 5662 5663 5663 5663 5663 5664 5664 5664 5663 5663 5662 5662 5661 5660 5660 5660 5660
5657 5657 5657 5655 5654 5654 5654 5652 5652 5653 5652 5650 5649 5647 5646 5645 5645 5645 5645 5645 5646 5646 5646 5646 5646 5647 5648 5649 5649 5650 5651 5651 5651 5652 5653 5653 5653 5653 5653 5653 5652 5652 5651 5650 5649 5648 5648 5647 5647
5651 5651 5650 5648 5647 5647 5647 5645 5646 5646 5645 5643 5642 5640 5639 5638 5638 5638 5637 5637 5637 5637 5637 5637 5637 5638 5638 5638 5639 5640 5640 5641 5641 5642 5642 5642 5643 5643 5643 5642 5642 5641 5640 5639 5638 5637 5636 5635 5636
5644 5644 5644 5642 5640 5640 5639 5638 5641 5640 5638 5636 5635 5633 5632 5631 5630 5630 5629 5628 5628 5628 5627 5627 5627 5628 5628 5629 5629 5630 5630 5630 5631 5631 5631 5632 5632 5632 5632 5632 5631 5630 5629 5628 5627 5626 5625 5625 5625
5637 5637 5637 5635 5632 5632 5632 5633 5634 5633 5632 5630 5628 5627 5625 5624 5623 5621 5620 5619 5618 5618 5618 5618 5618 5618 5619 5619 5619 5620 5620 5620 5621 5621 5621 5622 5622 5622 5621 5621 5621 5620 5619 5618 5617 5616 5615 5615 5614
5630 5630 5629 5627 5625 5624 5624 5625 5627 5626 5624 5623 5621 5619 5618 5616 5615 5613 5612 5611 5610 5609 5608 5608 5608 5609 5609 5610 5610 5610 5610 5610 5611 5611 5611 5611 5611 5611 5611 5611 5610 5609 5608 5607 5607 5606 5605 5605 5604
5623 5623 5621 5620 5619 5617 5616 5621 5620 5619 5617 5615 5614 5612 5610 5609 5607 5605 5603 5602 5601 5600 5599 5599 5599 5599 5599 5600 5600 5600 5600 5601 5601 5601 5601 5601 5601 5601 5600 5600 5600 5599 5598 5597 5597 5596 5595 5595 5594
5614 5615 5614 5614 5612 5610 5609 5614 5613 5612 5609 5608 5607 5605 5603 5601 5599 5597 5595 5594 5592 5592 5591 5591 5590 5590 5590 5590 5590 5591 5591 5591 5591 5591 5591 5591 5591 5591 5591 5590 5589 5589 5588 5588 5587 5586 5586 5585 5585